Tracking 20945 objects as of 9-Jul-2020
HD Live streaming from Space Station
objects crossing your sky now

SL-12 R/B(2)

Track SL-12 R/B(2) now!


NORAD ID: 17875
Int'l Code: 1984-090F
Perigee: 35,441.5 km
Apogee: 35,592.5 km
Inclination: 12.0 °
Period: 1,422.0 minutes
Semi major axis: 41887 km
RCS: 2.018 m2 (large)
Launch date: August 24, 1984
Source: Commonwealth of Independent States (former USSR) (CIS)
Launch site: TYURATAM MISSILE AND SPACE COMPLEX (TTMTR)

Note: This is a ROCKET BODY
aabbcc
Your satellite tracking list
Your tracking list is empty




NASA's NSSDC Master Catalog

Two Line Element Set (TLE):
1 17875U 84090F   20190.57294866 -.00000287 +00000-0 +00000-0 0  9996
2 17875 012.0048 325.5540 0018033 104.2499 140.6176 01.01267097134896
Source of the keplerian elements: AFSPC